#timestamp,LO_Frequency,Hit,StdDev 
1701586815.7,286047006.4,N
1701586835.6,286047006.9,N
1701586855.4,286047006.3,N
1701586875.2,286047008.7,N
1701586895.1,286047008.0,N
1701586896.0,286047008.0,N
1701586915.8,286047008.5,Y
1701586935.7,286047000.8,P
1701586955.5,286046998.1,N
1701586975.3,286046998.9,N
1701586995.2,286046997.4,N
1701587015.0,286046999.4,N
1701587015.9,286046999.4,N
1701587035.8,286046998.2,N
1701587055.6,286047000.6,N
1701587075.4,286047000.9,N
1701587095.3,286047000.6,N
1701587115.1,286047000.4,N
1701587135.8,286046999.9,N
1701587155.7,286047000.6,N
1701587175.5,286046999.9,N
1701587195.4,286046998.4,N
1701587215.2,286046998.1,N
1701587235.0,286047001.1,N
1701587235.9,286047001.1,N
1701587255.8,286046998.4,N
1701587275.6,286047000.3,N
1701587295.4,286047000.5,N
1701587315.3,286046998.5,N
1701587335.1,286046999.7,N
1701587355.9,286047000.2,N
1701587375.7,286047001.0,N
1701587395.5,286047000.0,N
1701587415.4,286047000.3,N
1701587435.2,286047000.0,N
1701587455.0,286046998.5,N
1701587455.9,286046998.5,N
1701587475.8,286046999.9,N
1701587495.6,286047000.6,N
1701587515.5,286046999.9,N
1701587535.3,286046999.9,N
1701587555.1,286047000.6,N
1701587575.9,286046999.7,N
1701587595.7,286047002.3,N
1701587615.5,286047000.0,N
1701587635.4,286047000.8,N
1701587655.2,286047002.6,N
1701587675.1,286047000.3,N
1701587676.0,286047000.3,N
1701587695.8,286047000.2,N
1701587715.6,286047002.0,N
1701587735.5,286047001.1,N
1701587755.3,286047000.9,N
1701587775.1,286047000.5,N
1701587795.9,286046999.9,N
1701587815.7,286047002.3,N
1701587835.6,286047002.8,N
1701587855.4,286047002.2,N
1701587875.2,286047000.9,N
1701587895.1,286047000.2,N
1701587896.0,286047000.2,N
1701587915.8,286047002.7,N
1701587935.7,286046999.7,N
1701587955.5,286047002.4,N
1701587975.3,286047001.5,N
1701587995.2,286047002.6,N
1701588015.9,286047001.6,N
1701588035.7,286047002.4,N
1701588055.6,286047002.3,N
1701588075.4,286047000.5,N
1701588095.3,286047002.0,N
1701588115.1,286047000.5,N
1701588116.0,286047000.5,N
1701588135.8,286047000.1,N
1701588155.7,286047002.0,N
1701588175.5,286047004.3,Y
1701588195.3,286046998.2,P
1701588215.2,286047000.1,N
1701588235.0,286046999.8,N
1701588235.9,286046999.8,N
1701588255.8,286047001.5,N
1701588275.6,286047002.1,N
1701588295.4,286047000.1,N
1701588315.3,286047001.6,N
1701588335.1,286047005.6,Y
1701588355.8,286047005.1,P
1701588375.7,286047003.4,N
1701588395.5,286047001.5,N
1701588415.4,286047004.0,N
1701588435.2,286047002.8,N
1701588455.0,286047001.6,N
1701588455.9,286047001.6,N
1701588475.8,286047002.3,N
1701588495.6,286047001.8,N
1701588515.4,286047004.4,Y
1701588535.3,286047002.5,P
1701588555.1,286047001.1,P
1701588575.9,286046998.8,N
1701588595.7,286046998.8,N
1701588615.5,286046997.2,N
1701588635.4,286046997.7,N
1701588655.2,286046998.4,N
1701588675.0,286046998.3,N
1701588675.9,286046998.3,N
1701588695.8,286046999.0,N
1701588715.6,286046999.2,N
1701588735.5,286046999.3,N
1701588755.3,286047001.1,N
1701588775.1,286047000.2,N
1701588795.9,286046999.9,N
1701588815.7,286047000.2,N
1701588835.5,286047000.1,N
1701588855.4,286047000.6,N
1701588875.2,286047000.0,N
1701588895.1,286047000.3,N
1701588896.0,286047000.3,N
1701588915.8,286047001.1,N
1701588935.6,286047001.1,N
1701588955.5,286047000.3,N
1701588975.3,286047002.7,N
1701588995.1,286047000.1,N
1701589015.9,286046998.6,N
1701589035.7,286046998.1,N
1701589055.6,286047002.8,N
1701589075.4,286046998.3,N
1701589095.2,286046998.3,N
1701589115.1,286047001.2,N
1701589116.0,286047001.2,N
1701589135.8,286046998.9,N
1701589155.6,286046999.2,N
1701589175.5,286046998.7,N
1701589195.3,286046998.2,N
1701589215.2,286047001.2,N
1701589235.9,286046999.4,N
1701589255.7,286046998.6,N
1701589275.6,286047000.6,N
1701589295.4,286047000.7,N
1701589315.3,286047000.9,N
1701589335.1,286046998.2,N
1701589336.0,286046998.2,N
1701589355.8,286047000.8,N
1701589375.7,286047002.4,N
1701589395.5,286047000.1,N
1701589415.3,286047001.5,N
1701589435.2,286047000.0,N
1701589455.0,286047000.2,N
1701589455.9,286047000.2,N
1701589475.8,286046998.7,N
1701589495.6,286046998.4,N
1701589515.4,286046999.9,N
1701589535.3,286047000.3,N
1701589555.1,286047001.6,N
1701589575.8,286047000.2,N
1701589595.7,286047002.8,N
1701589615.5,286047002.8,N
1701589635.4,286047000.9,N
1701589655.2,286047000.7,N
1701589675.0,286047002.0,N
1701589675.9,286047002.0,N
1701589695.8,286047004.0,N
1701589715.6,286047001.6,N
1701589735.4,286047000.1,N
1701589755.3,286047002.5,N
1701589775.1,286047002.7,N
1701589795.9,286047002.1,N
1701589815.7,286047000.4,N
1701589835.5,286046999.7,N
1701589855.4,286047002.2,N
1701589875.2,286047000.1,N
1701589895.0,286046998.6,N
1701589896.0,286046998.6,N
1701589915.8,286046999.9,N
1701589935.6,286047001.4,N
1701589955.5,286047002.1,N
1701589975.3,286047002.5,N
1701589995.1,286047002.3,N
1701590015.9,286047002.0,N
1701590035.7,286046999.9,N
1701590055.5,286046999.7,N
1701590075.4,286047000.4,N
1701590095.2,286047002.4,N
1701590115.1,286047000.1,N
1701590116.0,286047000.1,N
1701590135.8,286047001.9,N
1701590155.6,286047002.5,N
1701590175.5,286047004.3,Y
1701590195.3,286046998.3,P
1701590215.2,286046998.6,N
1701590235.9,286047001.2,N
1701590255.7,286046998.2,N
1701590275.6,286046998.6,N
1701590295.4,286047000.7,N
1701590315.2,286047000.3,N
1701590335.1,286046999.7,N
1701590336.0,286046999.7,N
1701590355.8,286047000.2,N
1701590375.7,286047000.3,N
1701590395.5,286047000.2,N
